map of SMA home
SMA - Airport
Location
City:  Santa Maria, Região Autónoma dos Açores (Azores), Portugal
ICAO:LPAZ
IATA:SMA

Details
Type:Airport (Aerodrome, Airfield)
Use:Public/Civil, International (customs port of entry)
Latitude:36°58'17"N (36.971390)
Longitude:25°10'14"W (-25.170638)
Datum:WGS 1984
Elevation:308 ft (94 m)
Variation:7.98°W (WMM2015 magnetic declination)
0.14° annual change
Runways:3
Longest:10000 × 197 ft (3048 × 60 m), paved

Time
Time Zone:UTC-1 (DST+0)
Local Time:

Weather
METAR:LPAZ 201330Z 28006KT 250V310 9999 FEW020 16/11 Q1033
TAF:LPAZ 201100Z 2012/2118 VRB05KT 9999 FEW015 SCT040
BECMG 2022/2101 21008KT SCT012 BKN030
BECMG 2106/2109 29015KT
TEMPO 2106/2110 5000 -RADZ BR SCT006 BKN012

Related Locations
Nearby:
Farthest:YJBY: 12177 mi / 19597 km
Jervis Bay, NSW, AU

Find:

   beyond  
but within

Other Information
Maps:
NOTAMs:
Links:
Sources:

  
  • flag of Portugal
  • flag of Região Autónoma dos Açores (Azores)
  

Sectional Chart

Flight Planning
at skyvector.com

Satellite Image

Google Maps Satellite view

 

Copyright © 2004-2019 Karl L. Swartz. All rights reserved.
The Great Circle Mapper name and logo are trademarks of the Great Circle Mapper.
All other trademarks mentioned herein belong to their respective owners.
Please see credits for attibutions and further copyright information.

  Follow gcmap on Facebook Follow gcmap on Twitter Follow gcmap on Google+ GCmap on LinkedIn

hCard Microformat

Geo Microformat